This is the latest recevied weather packets stored in our database for station/object K7FLA. If no packets are shown the sender has not sent any weather packets the latest 10 day(s).
| Time | Temp. | Humidity | Pressure | Rain* | Wind** | Luminosity | Snow |
|---|---|---|---|---|---|---|---|
| 1788381786 | 31.11° C | 17% | 1097 hPa | 0 mm | - | 737 W/m² | - |
| 1788381481 | 30.56° C | 18% | 1097.1 hPa | 0 mm | - | 744 W/m² | - |
| 1788381176 | 30.56° C | 18% | 1097.1 hPa | 0 mm | - | 749 W/m² | - |
| 1788380871 | 30.56° C | 16% | 1096.8 hPa | 0 mm | - | 755 W/m² | - |
| 1788380568 | 30.56° C | 16% | 1097.3 hPa | 0 mm | - | 761 W/m² | - |
| 1788380264 | 30.56° C | 16% | 1097.3 hPa | 0 mm | - | 767 W/m² | - |
| 1788379963 | 30.56° C | 17% | 1097.3 hPa | 0 mm | - | 771 W/m² | - |
| 1788379658 | 30° C | 17% | 1097.1 hPa | 0 mm | - | 777 W/m² | - |
| 1788379354 | 30° C | 15% | 1097.1 hPa | 0 mm | - | 779 W/m² | - |
| 1788379049 | 30° C | 15% | 1097.1 hPa | 0 mm | - | 782 W/m² | - |
| 1788378748 | 30.56° C | 15% | 1097.4 hPa | 0 mm | - | 787 W/m² | - |
| 1788378448 | 30° C | 19% | 1097.4 hPa | 0 mm | - | 787 W/m² | - |
| 1788378143 | 30° C | 16% | 1097.4 hPa | 0 mm | - | 789 W/m² | - |
| 1788377839 | 30° C | 15% | 1097.4 hPa | 0 mm | - | 790 W/m² | - |
| 1788377534 | 30° C | 16% | 1097.5 hPa | 0 mm | - | 792 W/m² | - |
| 1788377232 | 30° C | 15% | 1097.5 hPa | 0 mm | - | 791 W/m² | - |
| 1788376926 | 30° C | 18% | 1097.6 hPa | 0 mm | - | 791 W/m² | - |
| 1788376621 | 30° C | 17% | 1097.5 hPa | 0 mm | - | 789 W/m² | - |
| 1788376321 | 30° C | 17% | 1097.7 hPa | 0 mm | - | 789 W/m² | - |
| 1788376016 | 30° C | 17% | 1097.6 hPa | 0 mm | - | 786 W/m² | - |
| 1788375711 | 30° C | 16% | 1097.8 hPa | 0 mm | - | 783 W/m² | - |
| 1788375407 | 30° C | 17% | 1097.8 hPa | 0 mm | - | 779 W/m² | - |
| 1788375103 | 30° C | 16% | 1097.7 hPa | 0 mm | - | 779 W/m² | - |
| 1788374803 | 30° C | 17% | 1097.7 hPa | 0 mm | - | 774 W/m² | - |
| 1788374499 | 30° C | 15% | 1097.7 hPa | 0 mm | - | 769 W/m² | - |
* Rain latest hour (hover to see other rain measurements)
** Current wind speed in m/s (hover to see current wind gust speed)